TimeAST,TemperatureF,Dew PointF,Humidity,Sea Level PressureIn,VisibilityMPH,Wind Direction,Wind SpeedMPH,Gust SpeedMPH,PrecipitationIn,Events,Conditions,WindDirDegrees,DateUTC
12:00 AM,82.4,77.0,84,29.86,-9999.0,East,15.0,-,N/A,,Unknown,90,2013-10-10 04:00:00
12:55 AM,82.4,75.2,79,29.86,-9999.0,East,16.1,-,N/A,,Unknown,80,2013-10-10 04:55:00
1:55 AM,82.4,75.2,79,29.83,-9999.0,East,17.3,-,N/A,,Unknown,80,2013-10-10 05:55:00
2:55 AM,82.4,75.2,79,29.83,-9999.0,North,-9999.0,-,N/A,,Unknown,0,2013-10-10 06:55:00
3:55 AM,82.4,75.2,79,29.83,-9999.0,East,15.0,-,N/A,,Unknown,80,2013-10-10 07:55:00
4:55 AM,82.4,75.2,79,29.83,-9999.0,East,13.8,-,N/A,,Unknown,80,2013-10-10 08:55:00
5:55 AM,82.4,75.2,79,29.86,-9999.0,East,15.0,-,N/A,,Unknown,80,2013-10-10 09:55:00
6:55 AM,82.4,75.2,79,29.86,-9999.0,East,15.0,-,N/A,,Unknown,80,2013-10-10 10:55:00
8:00 AM,84.2,75.2,74,29.89,-9999.0,East,18.4,-,N/A,,Unknown,80,2013-10-10 12:00:00
9:00 AM,86.0,75.2,70,29.89,6.2,East,17.3,-,N/A,,Partly Cloudy,90,2013-10-10 13:00:00
10:00 AM,86.0,75.2,70,29.92,6.2,East,18.4,-,N/A,,Partly Cloudy,90,2013-10-10 14:00:00
11:00 AM,86.0,75.2,70,29.89,6.2,East,17.3,-,N/A,,Partly Cloudy,90,2013-10-10 15:00:00
12:00 PM,87.8,75.2,66,29.89,-9999.0,East,17.3,-,N/A,,Unknown,100,2013-10-10 16:00:00
1:00 PM,91.4,75.2,59,29.86,6.2,East,12.7,-,N/A,,Partly Cloudy,100,2013-10-10 17:00:00
1:55 PM,89.6,73.4,59,29.80,-9999.0,East,15.0,-,N/A,,Unknown,100,2013-10-10 17:55:00
2:55 PM,87.8,75.2,66,29.80,6.2,East,16.1,-,N/A,,Scattered Clouds,80,2013-10-10 18:55:00
4:00 PM,86.0,77.0,74,29.77,6.2,ENE,13.8,-,N/A,,Scattered Clouds,70,2013-10-10 20:00:00
5:00 PM,86.0,77.0,74,29.77,6.2,ENE,16.1,-,N/A,,Scattered Clouds,60,2013-10-10 21:00:00
5:55 PM,84.2,75.2,74,29.77,6.2,ENE,15.0,-,N/A,,Partly Cloudy,60,2013-10-10 21:55:00
7:00 PM,84.2,77.0,79,29.77,6.2,ENE,16.1,-,N/A,,Partly Cloudy,60,2013-10-10 23:00:00
8:00 PM,82.4,77.0,84,29.80,6.2,ENE,16.1,-,N/A,,Partly Cloudy,60,2013-10-11 00:00:00
8:55 PM,84.2,77.0,79,29.83,-9999.0,ENE,16.1,-,N/A,,Unknown,70,2013-10-11 00:55:00